Meteopurmerend
purmerend
Purmerend - Baaienwijk



My webcam  My webcam


waarschuwing voor Onweer Meer informatie blitzortung!


Regen radar Meer informatie rain snow radar


Bezoek onze andere website:

CandyAppleRed WebdesignWebdesign Purmerend Candy Apple Red

MeteopurmerendBlog

Template documentation
and downloads



Onweer van: 26-07-2021 10:00 tot: 21:00 waarschuwing voor: Onweer niveau: Geel info button
Enkele onweersbuien, lokaal met hagel en veel neerslag in korte tijd.Kans op blikseminslag, hagel en veel neerslag in korte tijd.Verkeer en buitenactiviteiten kunnen hinder ondervinden.Mijd open water en open gebied, schuil niet onder bomen.Volg weerberichten en waarschuwingen.

15 daagse weersverwachting Arendal (NO)

  • Overzicht
  • Per uur
  • 15 dagen
  • Extra
  • Vergelijk
  • Kaarten
  • Dagkaart
  • Meer »
  • Info
  • Statistieken
  • Directe link
    Temp 6h Neerslag Wind  
 05:07     21:58    Daglengte: 16:51 Vandaag
20:00
20°
0.5 mm
4
warningclass
 05:09     21:56    Daglengte: 16:47 Morgen
02:00
19°
21.3 mm
3
warningclass
08:00
19°
21.2 mm
3
warningclass
14:00
19°
27.2 mm
3
warningclass
20:00
19°
16.3 mm
1
warningclass
 05:11     21:54    Daglengte: 16:43 Woensdag 28 Jul
02:00
17°
12.3 mm
1
08:00
17°
2.9 mm
1
14:00
20°
16.5 mm
4
20:00
18°
26.5 mm
3
 05:13     21:52    Daglengte: 16:39 Donderdag 29 Jul
02:00
15°
32.7 mm
2
08:00
16°
25.6 mm
2
Locatie info
Region: Aust-Agder
Latitude: 58.4701°N
Longitude: 8.7586°E
19 masl
Postcode: 4838
Temp/Neerslag /Baro Onweer/Dauwpunt
    Temp Baro 1h Neerslag Dauwpunt Wind UV Bewolking  
 05:07     21:58    Daglengte: 16:51 Vandaag
15:00
21°
1013.3 hPa
46%
14.2°
4
Windvlaag: -0.6 m/s
57%
16:00
21°
1012.9 hPa
24%
14.2°
4
Windvlaag: -0.4 m/s
61%
17:00
21°
1012.6 hPa
22%
16.1°
4
Windvlaag: 0.6 m/s
76%
18:00
21°
1012.3 hPa 0.5 mm
81%
18.5°
3
Windvlaag: 1.4 m/s
83%
19:00
20°
1012.0 hPa
82%
18.3°
3
Windvlaag: -1 m/s
81%
20:00
20°
1011.6 hPa
82%
18.5°
4
Windvlaag: 0.5 m/s
86% warningclass
21:00
19°
1011.8 hPa 2.3 mm
82%
18.2°
4
Windvlaag: 2 m/s
86% warningclass
22:00
19°
1011.8 hPa 2.0 mm
82%
17.8°
4
Windvlaag: 1.4 m/s
86% warningclass
23:00
19°
1011.8 hPa 4.2 mm
82%
18.0°
3
Windvlaag: 1.9 m/s
86% warningclass
 05:09     21:56    Daglengte: 16:47 Morgen
00:00
18°
1011.6 hPa 3.1 mm
82%
17.9°
3
Windvlaag: -0.3 m/s
84% warningclass
01:00
18°
1011.1 hPa 5.0 mm
82%
18.0°
3
Windvlaag: -1.8 m/s
86% warningclass
02:00
19°
1010.9 hPa 4.7 mm
82%
18.3°
3
Windvlaag: 0.7 m/s
85% warningclass
03:00
19°
1010.6 hPa 4.2 mm
82%
18.7°
2
Windvlaag: -1.1 m/s
77% warningclass
04:00
19°
1010.4 hPa
82%
18.8°
2
Windvlaag: -3.3 m/s
83% warningclass
05:00
19°
1009.8 hPa 4.4 mm
82%
18.8°
2
Windvlaag: -2.8 m/s
86% warningclass
06:00
19°
1009.5 hPa 4.0 mm
82%
19.0°
3
Windvlaag: -3.7 m/s
86% warningclass
07:00
19°
1009.4 hPa 4.7 mm
82%
19.0°
3
Windvlaag: -3.1 m/s
86% warningclass
08:00
19°
1009.3 hPa 4.0 mm
82%
18.9°
3
Windvlaag: 0.2 m/s
86% warningclass
09:00
19°
1009.2 hPa 5.1 mm
82%
18.4°
4
Windvlaag: -0.6 m/s
86% warningclass
10:00
19°
1009.1 hPa 4.7 mm
82%
17.9°
4
Windvlaag: -0.6 m/s
86% warningclass
11:00
20°
1008.9 hPa 4.7 mm
82%
18.4°
4
Windvlaag: -1.9 m/s
80% warningclass
12:00
20°
1008.6 hPa 4.8 mm
82%
18.4°
4
Windvlaag: -2.4 m/s
79% warningclass
13:00
20°
1008.4 hPa 4.2 mm
82%
18.4°
4
Windvlaag: -2.3 m/s
86% warningclass
14:00
19°
1008.3 hPa 3.7 mm
82%
18.3°
3
Windvlaag: -3.1 m/s
86% warningclass
15:00
19°
1007.9 hPa 3.5 mm
82%
18.4°
3
Windvlaag: -3.8 m/s
85% warningclass
16:00
20°
1007.6 hPa 3.2 mm
82%
18.5°
3
Windvlaag: -4 m/s
84% warningclass
17:00
20°
1007.3 hPa 3.1 mm
82%
18.4°
3
Windvlaag: -3.1 m/s
86% warningclass
18:00
19°
1007.0 hPa 3.3 mm
82%
18.1°
2
Windvlaag: -2.3 m/s
85% warningclass
19:00
19°
1006.8 hPa 3.2 mm
82%
17.9°
2
Windvlaag: -1.3 m/s
78% warningclass
20:00
19°
1006.4 hPa
82%
17.8°
1
Windvlaag: -1 m/s
76% warningclass
21:00
19°
1006.4 hPa
82%
17.8°
1
Windvlaag: -0.6 m/s
75%
22:00
18°
1006.5 hPa 2.9 mm
82%
17.4°
1
Windvlaag: 0.2 m/s
70%
23:00
17°
1006.4 hPa
79%
16.8°
1
Windvlaag: -0 m/s
70%
 05:11     21:54    Daglengte: 16:43 Woensdag 28 Jul
00:00
17°
1006.4 hPa 2.9 mm
80%
16.5°
1
Windvlaag: -1.7 m/s
84%
01:00
17°
1006.2 hPa 3.5 mm
82%
16.7°
1
Windvlaag: -2.4 m/s
86%
02:00
17°
1005.8 hPa 3.0 mm
82%
16.8°
1
Windvlaag: -2.1 m/s
79%
03:00
17°
1005.4 hPa
81%
16.7°
1
Windvlaag: -2.1 m/s
53%
04:00
17°
1005.2 hPa 2.9 mm
80%
16.6°
1
Windvlaag: 1.2 m/s
66%
05:00
17°
1004.9 hPa
82%
16.4°
1
Windvlaag: 3.6 m/s
86%
06:00
17°
1004.8 hPa
82%
16.1°
1
Windvlaag: 4.1 m/s
84%
07:00
17°
1004.7 hPa
82%
15.9°
1
Windvlaag: 3.7 m/s
83%
08:00
17°
1004.6 hPa
78%
16.2°
1
Windvlaag: 2.6 m/s
37%
09:00
18°
1004.5 hPa
44%
16.6°
1
Windvlaag: 0 m/s
27%
10:00
18°
1004.6 hPa
81%
16.8°
2
Windvlaag: 3.6 m/s
47%
11:00
19°
1004.1 hPa 4.6 mm
100%
14.5°
3
Windvlaag: 6 m/s
63%
12:00
19°
1003.9 hPa 5.2 mm
100%
14.2°
3
Windvlaag: 6.6 m/s
59%
13:00
19°
1003.7 hPa 3.3 mm
80%
13.5°
4
Windvlaag: 6.4 m/s
60%
14:00
20°
1003.3 hPa 3.4 mm
87%
14.6°
4
Windvlaag: 6.4 m/s
64%
15:00
20°
1003.1 hPa 5.5 mm
42%
14.7°
5
Windvlaag: 7.7 m/s
64%
16:00
20°
1002.8 hPa 5.1 mm
77%
14.7°
4
Windvlaag: 7.5 m/s
68%
17:00
20°
1002.5 hPa 5.7 mm
37%
14.7°
4
Windvlaag: 6.9 m/s
71%
18:00
19°
1002.2 hPa 5.4 mm
36%
14.5°
4
Windvlaag: 7.1 m/s
51%
19:00
19°
1001.8 hPa
35%
14.8°
4
Windvlaag: 7.1 m/s
28%
20:00
18°
1001.4 hPa 4.9 mm
36%
15.4°
3
Windvlaag: 6.9 m/s
77%
21:00
18°
1001.2 hPa 4.9 mm
41%
15.4°
2
Windvlaag: 5.7 m/s
73%
22:00
17°
1001.1 hPa 5.1 mm
41%
15.8°
2
Windvlaag: 3.2 m/s
77%
23:00
16°
1001.1 hPa 6.7 mm
40%
15.9°
2
Windvlaag: 3.3 m/s
82%
 05:13     21:52    Daglengte: 16:39 Donderdag 29 Jul
00:00
16°
1000.7 hPa 5.7 mm
42%
15.4°
3
Windvlaag: 4.5 m/s
84%
01:00
16°
1000.3 hPa 5.1 mm
40%
15.0°
3
Windvlaag: 5.9 m/s
83%
02:00
15°
999.7 hPa 5.2 mm
40%
14.5°
2
Windvlaag: 5 m/s
91%
03:00
16°
999.0 hPa 4.8 mm
37%
14.5°
3
Windvlaag: 6.1 m/s
87%
04:00
16°
998.6 hPa 5.1 mm
40%
15.0°
2
Windvlaag: 6 m/s
77%
05:00
16°
997.9 hPa 5.7 mm
40%
14.9°
2
Windvlaag: 5.4 m/s
82%
06:00
16°
997.4 hPa 5.2 mm
40%
14.8°
3
Windvlaag: 5.4 m/s
92%
07:00
16°
997.1 hPa 4.9 mm
40%
13.5°
3
Windvlaag: 6.3 m/s
89%
08:00
16°
997.2 hPa
42%
13.2°
2
Windvlaag: 5.5 m/s
93%
09:00
17°
995.1 hPa
92%
13.4°
2
Windvlaag: 6.7 m/s
96%
10:00
17°
994.8 hPa
100%
14.8°
3
Windvlaag: 7.5 m/s
98%
11:00
18°
994.5 hPa
100%
13.6°
3
Windvlaag: 6.8 m/s
98%
12:00
18°
994.2 hPa
54%
14.3°
4
Windvlaag: 7.4 m/s
98%
13:00
18°
993.9 hPa
85%
13.3°
4
Windvlaag: 8.2 m/s
93%
14:00
19°
993.5 hPa
35%
14.6°
4
Windvlaag: 8.3 m/s
95%
Temp/Neerslag /Baro Onweer/Dauwpunt
    Temp Baro Neerslag Dauwpunt Wind Bewolking  
 05:07     21:58    Daglengte: 16:51 Vandaag
17:00
21°
1012.6 hPa   16.1°
4
76%
20:00
20°
1011.6 hPa 0.5 mm 18.5°
4
86% warningclass
23:00
19°
1011.8 hPa 8.5 mm 18.0°
3
86% warningclass
 05:09     21:56    Daglengte: 16:47 Morgen
02:00
19°
1010.9 hPa 12.8 mm 18.3°
3
85% warningclass
05:00
19°
1009.8 hPa 8.6 mm 18.8°
2
86% warningclass
08:00
19°
1009.3 hPa 12.6 mm 18.9°
3
86% warningclass
11:00
20°
1008.9 hPa 14.5 mm 18.4°
4
80% warningclass
14:00
19°
1008.3 hPa 12.7 mm 18.3°
3
86% warningclass
17:00
20°
1007.3 hPa 9.9 mm 18.4°
3
86% warningclass
20:00
19°
1006.4 hPa 6.4 mm 17.8°
1
76% warningclass
23:00
17°
1006.4 hPa 2.9 mm 16.8°
1
70%
 05:11     21:54    Daglengte: 16:43 Woensdag 28 Jul
02:00
17°
1005.8 hPa 9.4 mm 16.8°
1
79%
05:00
17°
1004.9 hPa 2.9 mm 16.4°
1
86%
08:00
17°
1004.6 hPa   16.2°
1
37%
11:00
19°
1004.1 hPa 4.6 mm 14.5°
3
63%
14:00
20°
1003.3 hPa 11.9 mm 14.6°
4
64%
17:00
20°
1002.5 hPa 16.3 mm 14.7°
4
71%
20:00
18°
1001.4 hPa 10.3 mm 15.4°
3
77%
23:00
16°
1001.1 hPa 16.6 mm 15.9°
2
82%
 05:13     21:52    Daglengte: 16:39 Donderdag 29 Jul
02:00
15°
999.7 hPa 16.1 mm 14.5°
2
91%
05:00
16°
997.9 hPa 15.6 mm 14.9°
2
82%
08:00
16°
997.2 hPa 10.1 mm 13.2°
2
93%
11:00
18°
994.5 hPa   13.6°
3
98%
14:00
19°
993.5 hPa   14.6°
4
95%
17:00
17°
995.0 hPa 45.0 mm 11.4°
4
1%
20:00
15°
994.4 hPa 45.4 mm 13.3°
4
1%
23:00
14°
993.3 hPa 45.5 mm 12.3°
6
1%
 05:15     21:49    Daglengte: 16:34 Vrijdag 30 Jul
02:00
13°
992.8 hPa 45.5 mm 10.7°
6
1%
05:00
12°
992.0 hPa 45.5 mm 10.0°
4
0%
08:00
16°
992.5 hPa 45.5 mm 11.3°
5
1%
11:00
22°
992.6 hPa 45.5 mm 11.0°
2
1%
14:00
23°
993.0 hPa 45.5 mm 11.4°
2
1%
17:00
24°
994.1 hPa 45.5 mm 11.8°
1
1%
20:00
22°
994.5 hPa 45.5 mm 12.6°
3
0%
23:00
15°
995.3 hPa 45.5 mm 9.5°
3
0%
 05:17     21:47    Daglengte: 16:30 Zaterdag 31 Jul
02:00
14°
995.5 hPa 45.5 mm 12.0°
3
1%
05:00
13°
995.9 hPa 45.5 mm 8.8°
3
1%
08:00
16°
996.8 hPa 45.5 mm 8.8°
1
1%
11:00
20°
997.4 hPa 45.5 mm 11.5°
2
1%
14:00
20°
997.4 hPa 45.5 mm 9.1°
4
1%
17:00
22°
996.3 hPa 45.5 mm 7.3°
5
1%
20:00
20°
995.6 hPa 45.5 mm 9.6°
5
1%
23:00
14°
995.8 hPa 45.5 mm 9.3°
3
0%
 05:19     21:45    Daglengte: 16:26 Zondag 01 Aug
02:00
12°
995.2 hPa 45.5 mm 8.8°
2
0%
05:00
11°
994.7 hPa 45.5 mm 9.9°
2
1%
08:00
15°
994.5 hPa 45.5 mm 10.5°
2
0%
11:00
19°
994.6 hPa 45.6 mm 10.5°
2
0%
14:00
18°
995.1 hPa 48.0 mm 13.5°
2
1%
17:00
17°
995.3 hPa 52.2 mm 14.4°
2
1%
20:00
15°
996.0 hPa 54.6 mm 13.6°
3
1%
23:00
13°
996.5 hPa 54.9 mm 12.3°
1
1%
 05:21     21:43    Daglengte: 16:22 Maandag 02 Aug
02:00
12°
996.5 hPa 54.9 mm 11.3°
2
1%
05:00
12°
996.9 hPa 54.9 mm 10.6°
2
1%
08:00
13°
997.9 hPa 54.9 mm 9.7°
4
1%
11:00
17°
998.8 hPa 54.9 mm 5.5°
4
0%
14:00
20°
998.9 hPa 109.9 mm 3.4°
5
0%
20:00
15°
1001.0 hPa 109.9 mm 5.8°
9
0%
 05:23     21:40    Daglengte: 16:17 Dinsdag 03 Aug
02:00
12°
1003.7 hPa 109.9 mm 5.2°
7
0%
08:00
14°
1004.2 hPa 109.9 mm 7.1°
7
0%
14:00
19°
1004.6 hPa 109.9 mm 4.9°
7
0%
20:00
17°
1005.3 hPa 109.9 mm 7.4°
6
0%
 05:26     21:38    Daglengte: 16:12 Woensdag 04 Aug
02:00
11°
1005.7 hPa 109.9 mm 9.2°
3
0%
08:00
13°
1003.1 hPa 110.7 mm 10.8°
1
1%
14:00
11°
1000.1 hPa 135.1 mm 10.5°
3
1%
20:00
13°
997.9 hPa 144.8 mm 12.2°
2
1%
 05:28     21:35    Daglengte: 16:07 Donderdag 05 Aug
02:00
11°
996.1 hPa 146.2 mm 11.1°
1
1%
08:00
13°
993.7 hPa 152.1 mm 11.9°
2
1%
14:00
17°
1007.2 hPa 1.6 mm 12.2°
2
69%
20:00
17°
1006.4 hPa 2.5 mm 12.6°
2
65%
 05:30     21:33    Daglengte: 16:03 Vrijdag 06 Aug
02:00
14°
1006.7 hPa 0.7 mm 11.1°
2
60%
08:00
15°
1006.1 hPa 0.8 mm 10.9°
2
61%
14:00
18°
1006.2 hPa 1.3 mm 12.0°
2
74%
20:00
17°
1005.6 hPa 0.7 mm 12.0°
3
60%
 05:32     21:31    Daglengte: 15:59 Zaterdag 07 Aug
02:00
14°
1005.8 hPa 0.8 mm 11.2°
2
57%
08:00
15°
1005.6 hPa 1.3 mm 11.1°
2
57%
14:00
18°
1006.0 hPa 1.2 mm 12.2°
2
63%
20:00
17°
1005.6 hPa 1.0 mm 12.1°
3
60%
 05:34     21:28    Daglengte: 15:54 Zondag 08 Aug
02:00
14°
1006.2 hPa 0.8 mm 11.0°
2
58%
08:00
15°
1006.5 hPa 0.8 mm 10.9°
2
59%
14:00
18°
1007.2 hPa 0.9 mm 11.9°
2
62%
20:00
17°
1007.3 hPa 0.8 mm 12.4°
2
63%
 05:36     21:26    Daglengte: 15:50 Maandag 09 Aug
02:00
15°
1008.1 hPa 0.7 mm 11.5°
2
66%
08:00
15°
1008.2 hPa 1.1 mm 11.7°
2
65%
14:00
18°
1009.2 hPa 1.5 mm 12.6°
2
62%
20:00
17°
1009.3 hPa 1.0 mm 12.2°
4
63%
 05:39     21:23    Daglengte: 15:44 Dinsdag 10 Aug
02:00
15°
1010.1 hPa 0.5 mm 11.5°
3
48%
08:00
15°
1010.2 hPa 0.1 mm 11.4°
2
50%
14:00
19°
1010.8 hPa 0.9 mm 12.0°
3
57%
  CAPE Lifted Index Hail Supercell Tornado SRH 3km CL BTM PRES CL TOP PRES Swiss DWD icon SMHI TS
 05:07     21:58    Daglengte: 16:51 Vandaag
15:00 21 J/kg -1.5 K 0 % 0 % 0 % 0 m²/s² 0 0 -1.32 3
16:00 112 J/kg -1.3 K 0 % 0 % 0 % 0 m²/s² 0 0 -1.27 3
17:00 157 J/kg -0.8 K 0 % 0 % 0 % 0 m²/s² 0 0 -0.62 3
18:00 304 J/kg -1.5 K 0 % 0 % 0 % 0 m²/s² 0 0 -1.47 80
19:00 288 J/kg -1.4 K 0 % 0 % 0 % 0 m²/s² 0 0 -1.37 80
20:00 581 J/kg -2.7 K 0 % 0 % 0 % 0 m²/s² 0 0 -2.67 95
21:00 595 J/kg -2.6 K 0 % 0 % 0 % 0 m²/s² 0 0 -2.48 95
22:00 396 J/kg -2.1 K 0 % 0 % 0 % 0 m²/s² 0 0 -1.89 95
23:00 554 J/kg -2.2 K 0 % 0 % 0 % 0 m²/s² 0 0 -2.2 95
 05:09     21:56    Daglengte: 16:47 Morgen
00:00 83 J/kg 0.0 K 0 % 0 % 0 % 0 m²/s² 0 0 0 95
01:00 0 J/kg 2.2 K 0 % 0 % 0 % 0 m²/s² 0 0 2.23 95
02:00 0 J/kg -2.7 K 0 % 0 % 0 % 0 m²/s² 0 0 -2.19 95
03:00 43 J/kg -2.4 K 0 % 0 % 0 % 0 m²/s² 0 0 -2.31 95
04:00 417 J/kg -2.8 K 0 % 0 % 0 % 0 m²/s² 0 0 -2.38 95
05:00 866 J/kg -2.9 K 0 % 0 % 0 % 0 m²/s² 0 0 -2.27 95
06:00 1097 J/kg -3.9 K 0 % 0 % 0 % 0 m²/s² 0 0 -3.27 95
07:00 1321 J/kg -4.3 K 0 % 0 % 0 % 0 m²/s² 0 0 -3.7 95
08:00 1252 J/kg -3.9 K 0 % 0 % 0 % 0 m²/s² 0 0 -3.18 95
09:00 1136 J/kg -3.4 K 0 % 0 % 0 % 0 m²/s² 0 0 -2.56 95
10:00 1015 J/kg -3.1 K 0 % 0 % 0 % 0 m²/s² 0 0 -1.96 95
11:00 992 J/kg -3.2 K 0 % 0 % 0 % 0 m²/s² 0 0 -2.24 95
12:00 983 J/kg -3.7 K 0 % 0 % 0 % 0 m²/s² 0 0 -2.89 95
13:00 949 J/kg -3.9 K 0 % 0 % 0 % 0 m²/s² 0 0 -2.94 95
14:00 954 J/kg -3.9 K 0 % 0 % 0 % 0 m²/s² 0 0 -3.06 95
15:00 870 J/kg -3.6 K 0 % 0 % 0 % 0 m²/s² 0 0 -2.34 95
16:00 789 J/kg -2.9 K 0 % 0 % 0 % 0 m²/s² 0 0 -1.31 95
17:00 802 J/kg -3.3 K 0 % 0 % 0 % 0 m²/s² 0 0 -1.71 95
18:00 758 J/kg -3.2 K 0 % 0 % 0 % 0 m²/s² 0 0 -1.37 95
19:00 910 J/kg -3.2 K 0 % 0 % 0 % 0 m²/s² 0 0 -1.67 95
20:00 1031 J/kg -4.0 K 0 % 0 % 0 % 0 m²/s² 0 0 -2.53 95
21:00 666 J/kg -2.8 K 0 % 0 % 0 % 0 m²/s² 0 0 -1.21 80
22:00 374 J/kg -2.1 K 0 % 0 % 0 % 0 m²/s² 0 0 -0.81 80
23:00 116 J/kg -1.6 K 0 % 0 % 0 % 0 m²/s² 0 0 0.35 80
 05:11     21:54    Daglengte: 16:43 Woensdag 28 Jul
00:00 93 J/kg -1.7 K 0 % 0 % 0 % 0 m²/s² 0 0 0.37 80
01:00 64 J/kg -0.9 K 0 % 0 % 0 % 0 m²/s² 0 0 1.23 80
02:00 11 J/kg 0.1 K 0 % 0 % 0 % 0 m²/s² 0 0 2.59 80
03:00 10 J/kg 0.5 K 0 % 0 % 0 % 0 m²/s² 0 0 2.78 80
04:00 5 J/kg 0.6 K 0 % 0 % 0 % 0 m²/s² 0 0 3.03 45
05:00 6 J/kg 0.4 K 0 % 0 % 0 % 0 m²/s² 0 0 2.83 80
06:00 11 J/kg 0.9 K 0 % 0 % 0 % 0 m²/s² 0 0 3.78 45
07:00 10 J/kg 1.3 K 0 % 0 % 0 % 0 m²/s² 0 0 4.69 45
08:00 9 J/kg 1.1 K 0 % 0 % 0 % 0 m²/s² 0 0 4.97 3
09:00 13 J/kg 0.9 K 0 % 0 % 0 % 0 m²/s² 0 0 4.38 2
10:00 16 J/kg 1.0 K 0 % 0 % 0 % 0 m²/s² 0 0 4.66 3
11:00 39 J/kg 1.4 K 0 % 0 % 0 % 0 m²/s² 0 0 4.97 3
12:00 30 J/kg 1.3 K 0 % 0 % 0 % 0 m²/s² 0 0 4.42 3
13:00 43 J/kg 0.5 K 0 % 0 % 0 % 0 m²/s² 0 0 3.29 3
14:00 129 J/kg 0.2 K 0 % 0 % 0 % 0 m²/s² 0 0 2.6 2
15:00 177 J/kg -0.7 K 0 % 0 % 0 % 0 m²/s² 0 0 1.49 2
16:00 223 J/kg -0.8 K 0 % 0 % 0 % 0 m²/s² 0 0 0.94 2
17:00 336 J/kg -1.5 K 0 % 0 % 0 % 0 m²/s² 0 0 0.06 2
18:00 310 J/kg -1.2 K 0 % 0 % 0 % 0 m²/s² 0 0 0.27 3
19:00 406 J/kg -1.6 K 0 % 0 % 0 % 0 m²/s² 0 0 -0.13 3
20:00 403 J/kg -1.5 K 0 % 0 % 0 % 0 m²/s² 0 0 -0.09 3
21:00 257 J/kg -1.1 K 0 % 0 % 0 % 0 m²/s² 0 0 0.4 3
22:00 139 J/kg -0.6 K 0 % 0 % 0 % 0 m²/s² 0 0 0.63 3
23:00 78 J/kg -0.3 K 0 % 0 % 0 % 0 m²/s² 0 0 0.63 3
 05:13     21:52    Daglengte: 16:39 Donderdag 29 Jul
00:00 24 J/kg 0.4 K 0 % 0 % 0 % 0 m²/s² 0 0 1.33 45
01:00 12 J/kg 0.7 K 0 % 0 % 0 % 0 m²/s² 0 0 1.78 45
02:00 19 J/kg 0.1 K 0 % 0 % 0 % 0 m²/s² 0 0 1.48 3
03:00 128 J/kg -0.6 K 0 % 0 % 0 % 0 m²/s² 0 0 0.09 3
04:00 438 J/kg -2.1 K 0 % 0 % 0 % 0 m²/s² 0 0 -1.71 3
05:00 514 J/kg -2.2 K 0 % 0 % 0 % 0 m²/s² 0 0 -1.03 3
06:00 780 J/kg -3.3 K 0 % 0 % 0 % 0 m²/s² 0 0 -1.86 45
07:00 309 J/kg -1.9 K 0 % 0 % 0 % 0 m²/s² 0 0 -1.36 3
08:00 361 J/kg -2.0 K 0 % 0 % 0 % 0 m²/s² 0 0 -0.95 3
09:00 609 J/kg -2.9 K 0 % 0 % 0 % 0 m²/s² 0 0 -0.77 3
10:00 1040 J/kg -4.5 K 0 % 0 % 0 % 0 m²/s² 0 0 -3.3 3
11:00 690 J/kg -3.0 K 0 % 0 % 0 % 0 m²/s² 0 0 -1.89 3
12:00 697 J/kg -2.9 K 0 % 0 % 0 % 0 m²/s² 0 0 -2.81 3
13:00 131 J/kg -0.3 K 0 % 0 % 0 % 0 m²/s² 0 0 1.23 3
14:00 554 J/kg -1.9 K 0 % 0 % 0 % 0 m²/s² 0 0 -1.03 3
Temp Baro Wind Neerslag
  EWN Forecast EWN WRFDA DWD ICON FMI HIRLAM MET Norway GFS
 05:07     21:58    Daglengte: 16:51 Vandaag
17:00 21.3° 1012.6 hPa 4.0 m/s 0.0 mm 21.5° 1011.3 hPa 4.4 m/s 1.5 mm 21.2° 1013.2 hPa 4.1 m/s -1.6 mm 22.2° 1012.4 hPa 4.4 m/s 0.0 mm 19.7° 1012.4 hPa 4.7 m/s
20:00 19.9° 1011.6 hPa 3.8 m/s 0.5 mm 20.4° 1010.6 hPa 4.9 m/s 3.2 mm 18.8° 1011.7 hPa 2.8 m/s 4.3 mm 20.3° 1011.2 hPa 4.0 m/s 0.0 mm 18.4° 1011.9 hPa 4.1 m/s
23:00 18.5° 1011.8 hPa 3.3 m/s 8.5 mm 19.1° 1010.6 hPa 7.3 m/s 7.7 mm 18.1° 1011.9 hPa 3.3 m/s 9.5 mm 19.1° 1011.2 hPa 1.8 m/s 0.0 mm 18.0° 1011.7 hPa 2.5 m/s
 05:09     21:56    Daglengte: 16:47 Morgen
02:00 18.7° 1010.9 hPa 2.6 m/s 12.8 mm 16.8° 1009.6 hPa 2.8 m/s 25.7 mm 18.5° 1010.8 hPa 2.6 m/s 12.1 mm 19.5° 1010.8 hPa 1.4 m/s 0.0 mm 18.1° 1010.7 hPa 1.6 m/s
05:00 19.0° 1009.8 hPa 2.5 m/s 8.6 mm 18.6° 1008.6 hPa 1.8 m/s 34.0 mm 18.4° 1009.5 hPa 2.0 m/s 11.0 mm 19.7° 1009.8 hPa 2.3 m/s 0.0 mm 17.7° 1010.2 hPa 3.0 m/s
08:00 19.4° 1009.3 hPa 3.1 m/s 12.6 mm 19.8° 1008.3 hPa 4.3 m/s 35.9 mm 18.9° 1009.0 hPa 2.6 m/s 10.5 mm 20.2° 1009.3 hPa 3.0 m/s 0.0 mm 18.4° 1010.3 hPa 5.1 m/s
11:00 19.6° 1008.9 hPa 4.2 m/s 14.5 mm 20.3° 1008.1 hPa 4.5 m/s 38.5 mm 19.8° 1008.8 hPa 1.8 m/s 12.1 mm 19.7° 1008.4 hPa 4.7 m/s 0.0 mm 17.9° 1009.7 hPa 6.1 m/s
14:00 19.5° 1008.3 hPa 3.4 m/s 12.7 mm 21.0° 1007.2 hPa 3.9 m/s 39.3 mm 19.5° 1008.5 hPa 1.9 m/s 7.8 mm 19.9° 1007.1 hPa 4.7 m/s 0.0 mm 18.2° 1008.7 hPa 4.6 m/s
17:00 19.5° 1007.3 hPa 2.9 m/s 9.9 mm 21.0° 1006.8 hPa 2.6 m/s 39.4 mm 19.5° 1007.6 hPa 1.5 m/s 4.2 mm 20.1° 1005.9 hPa 4.8 m/s 0.0 mm 18.4° 1007.4 hPa 3.9 m/s
20:00 18.8° 1006.4 hPa 1.4 m/s 6.4 mm 19.8° 1005.6 hPa 3.4 m/s 39.4 mm 18.7° 1007.1 hPa 0.7 m/s 3.4 mm 19.1° 1005.7 hPa 2.8 m/s 0.0 mm 19.2° 1006.2 hPa 2.0 m/s
23:00 17.2° 1006.4 hPa 0.7 m/s 2.9 mm 17.4° 1005.8 hPa 3.8 m/s 39.4 mm 17.2° 1006.7 hPa 0.4 m/s 1.9 mm 16.2° 1006.3 hPa 0.1 m/s 0.0 mm 17.0° 1006.6 hPa 1.1 m/s
 05:11     21:54    Daglengte: 16:43 Woensdag 28 Jul
02:00 17.2° 1005.8 hPa 1.1 m/s 9.4 mm 16.6° 1005.3 hPa 2.1 m/s 39.4 mm 16.3° 1005.8 hPa 0.6 m/s 1.5 mm 17.3° 1006.3 hPa 0.9 m/s 0.0 mm 15.9° 1006.2 hPa 0.9 m/s
05:00 17.1° 1004.9 hPa 0.7 m/s 2.9 mm 16.5° 1004.6 hPa 1.2 m/s 39.5 mm 16.0° 1004.9 hPa 0.4 m/s 1.1 mm 17.4° 1005.2 hPa 0.4 m/s 0.0 mm 16.4° 1005.4 hPa 0.6 m/s
08:00 17.3° 1004.6 hPa 1.2 m/s 0.0 mm 17.8° 1004.1 hPa 2.1 m/s 39.8 mm 17.4° 1004.3 hPa 1.4 m/s 0.2 mm 17.7° 1005.1 hPa 1.2 m/s 0.0 mm 17.1° 1005.2 hPa 0.9 m/s
11:00 18.6° 1004.1 hPa 3.3 m/s 4.6 mm 19.4° 1003.5 hPa 4.9 m/s 40.0 mm 18.6° 1004.1 hPa 2.8 m/s 0.3 mm 18.8° 1005.0 hPa 3.2 m/s
14:00 19.7° 1003.3 hPa 4.1 m/s 11.9 mm 20.6° 1003.1 hPa 6.9 m/s 40.0 mm 19.9° 1003.1 hPa 3.8 m/s 0.3 mm 20.5° 1004.7 hPa 4.2 m/s
17:00 19.6° 1002.5 hPa 4.1 m/s 16.3 mm 20.7° 1001.9 hPa 7.3 m/s 40.0 mm 19.9° 1002.4 hPa 3.6 m/s 0.0 mm 20.9° 1003.9 hPa 4.7 m/s
20:00 18.3° 1001.4 hPa 3.0 m/s 10.3 mm 19.0° 1001.0 hPa 7.2 m/s 40.0 mm 18.3° 1001.0 hPa 2.4 m/s 0.0 mm 18.4° 1003.0 hPa 3.3 m/s
23:00 16.4° 1001.1 hPa 2.3 m/s 16.6 mm 15.9° 1001.0 hPa 4.5 m/s 40.0 mm 16.3° 1000.1 hPa 1.2 m/s 0.0 mm 15.4° 1002.5 hPa 2.6 m/s
 05:13     21:52    Daglengte: 16:39 Donderdag 29 Jul
02:00 15.2° 999.7 hPa 2.1 m/s 16.1 mm 13.9° 999.8 hPa 2.7 m/s 40.1 mm 14.9° 998.2 hPa 0.9 m/s 0.0 mm 15.5° 1000.7 hPa 2.3 m/s
05:00 15.7° 997.9 hPa 2.3 m/s 15.6 mm 16.0° 998.0 hPa 4.1 m/s 40.1 mm 13.8° 996.5 hPa 0.9 m/s 0.0 mm 14.5° 999.0 hPa 2.8 m/s
08:00 16.2° 997.2 hPa 2.2 m/s 10.1 mm 16.5° 997.3 hPa 3.8 m/s 41.2 mm 16.2° 995.2 hPa 1.1 m/s 0.0 mm 15.8° 997.4 hPa 2.5 m/s
11:00 17.7° 994.5 hPa 3.3 m/s 0.0 mm 17.8° 996.1 hPa 5.5 m/s 42.4 mm 17.6° 994.1 hPa 2.8 m/s 0.1 mm 16.5° 996.0 hPa 3.3 m/s
14:00 18.6° 993.5 hPa 4.4 m/s 0.0 mm 17.5° 994.7 hPa 6.1 m/s 50.7 mm 18.9° 993.2 hPa 4.0 m/s 0.0 mm 15.4° 995.7 hPa 3.9 m/s
17:00 16.8° 995.0 hPa 4.0 m/s 45.0 mm 16.8° 995.0 hPa 4.0 m/s 45.0 mm
20:00 15.5° 994.4 hPa 4.5 m/s 45.4 mm 15.5° 994.4 hPa 4.5 m/s 45.4 mm
23:00 14.1° 993.3 hPa 6.4 m/s 45.5 mm 14.1° 993.3 hPa 6.4 m/s 45.5 mm
 05:15     21:49    Daglengte: 16:34 Vrijdag 30 Jul
02:00 13.4° 992.8 hPa 5.9 m/s 45.5 mm 13.4° 992.8 hPa 5.9 m/s 45.5 mm
05:00 11.8° 992.0 hPa 3.9 m/s 45.5 mm 11.8° 992.0 hPa 3.9 m/s 45.5 mm
08:00 16.2° 992.5 hPa 5.5 m/s 45.5 mm 16.2° 992.5 hPa 5.5 m/s 45.5 mm
11:00 21.9° 992.6 hPa 2.5 m/s 45.5 mm 21.9° 992.6 hPa 2.5 m/s 45.5 mm
14:00 23.0° 993.0 hPa 2.2 m/s 45.5 mm 23.0° 993.0 hPa 2.2 m/s 45.5 mm
17:00 23.8° 994.1 hPa 1.3 m/s 45.5 mm 23.8° 994.1 hPa 1.3 m/s 45.5 mm
20:00 21.7° 994.5 hPa 2.8 m/s 45.5 mm 21.7° 994.5 hPa 2.8 m/s 45.5 mm
23:00 14.6° 995.3 hPa 3.0 m/s 45.5 mm 14.6° 995.3 hPa 3.0 m/s 45.5 mm
 05:17     21:47    Daglengte: 16:30 Zaterdag 31 Jul
02:00 14.0° 995.5 hPa 2.9 m/s 45.5 mm 14.0° 995.5 hPa 2.9 m/s 45.5 mm
05:00 13.0° 995.9 hPa 2.7 m/s 45.5 mm 13.0° 995.9 hPa 2.7 m/s 45.5 mm
08:00 16.0° 996.8 hPa 1.4 m/s 45.5 mm 16.0° 996.8 hPa 1.4 m/s 45.5 mm
11:00 19.6° 997.4 hPa 1.8 m/s 45.5 mm 19.6° 997.4 hPa 1.8 m/s 45.5 mm
14:00 19.8° 997.4 hPa 3.7 m/s 45.5 mm 19.8° 997.4 hPa 3.7 m/s 45.5 mm
17:00 21.5° 996.3 hPa 4.9 m/s 45.5 mm 21.5° 996.3 hPa 4.9 m/s 45.5 mm
20:00 19.7° 995.6 hPa 5.0 m/s 45.5 mm 19.7° 995.6 hPa 5.0 m/s 45.5 mm
23:00 13.6° 995.8 hPa 3.2 m/s 45.5 mm 13.6° 995.8 hPa 3.2 m/s 45.5 mm
 05:19     21:45    Daglengte: 16:26 Zondag 01 Aug
02:00 11.6° 995.2 hPa 2.2 m/s 45.5 mm 11.6° 995.2 hPa 2.2 m/s 45.5 mm
05:00 11.0° 994.7 hPa 1.8 m/s 45.5 mm 11.0° 994.7 hPa 1.8 m/s 45.5 mm
08:00 14.9° 994.5 hPa 2.2 m/s 45.5 mm 14.9° 994.5 hPa 2.2 m/s 45.5 mm
11:00 18.9° 994.6 hPa 2.3 m/s 45.6 mm 18.9° 994.6 hPa 2.3 m/s 45.6 mm
14:00 17.9° 995.1 hPa 1.8 m/s 48.0 mm 17.9° 995.1 hPa 1.8 m/s 48.0 mm
17:00 16.9° 995.3 hPa 1.7 m/s 52.2 mm 16.9° 995.3 hPa 1.7 m/s 52.2 mm
20:00 14.6° 996.0 hPa 3.0 m/s 54.6 mm 14.6° 996.0 hPa 3.0 m/s 54.6 mm
23:00 13.2° 996.5 hPa 1.5 m/s 54.9 mm 13.2° 996.5 hPa 1.5 m/s 54.9 mm
 05:21     21:43    Daglengte: 16:22 Maandag 02 Aug
02:00 12.1° 996.5 hPa 1.7 m/s 54.9 mm 12.1° 996.5 hPa 1.7 m/s 54.9 mm
05:00 11.7° 996.9 hPa 2.3 m/s 54.9 mm 11.7° 996.9 hPa 2.3 m/s 54.9 mm
08:00 12.5° 997.9 hPa 4.2 m/s 54.9 mm 12.5° 997.9 hPa 4.2 m/s 54.9 mm
11:00 17.0° 998.8 hPa 4.4 m/s 54.9 mm 17.0° 998.8 hPa 4.4 m/s 54.9 mm
14:00 20.3° 998.9 hPa 4.7 m/s 54.9 mm 20.3° 998.9 hPa 4.7 m/s 54.9 mm
20:00 15.0° 1001.0 hPa 8.6 m/s 54.9 mm 15.0° 1001.0 hPa 8.6 m/s 54.9 mm
 05:23     21:40    Daglengte: 16:17 Dinsdag 03 Aug
02:00 11.7° 1003.7 hPa 6.9 m/s 54.9 mm 11.7° 1003.7 hPa 6.9 m/s 54.9 mm
08:00 13.7° 1004.2 hPa 6.8 m/s 54.9 mm 13.7° 1004.2 hPa 6.8 m/s 54.9 mm
14:00 18.9° 1004.6 hPa 7.2 m/s 54.9 mm 18.9° 1004.6 hPa 7.2 m/s 54.9 mm
20:00 17.3° 1005.3 hPa 5.9 m/s 54.9 mm 17.3° 1005.3 hPa 5.9 m/s 54.9 mm
 05:26     21:38    Daglengte: 16:12 Woensdag 04 Aug
02:00 11.3° 1005.7 hPa 2.9 m/s 54.9 mm 11.3° 1005.7 hPa 2.9 m/s 54.9 mm
08:00 12.9° 1003.1 hPa 0.9 m/s 55.7 mm 12.9° 1003.1 hPa 0.9 m/s 55.7 mm
14:00 11.0° 1000.1 hPa 3.4 m/s 71.6 mm 11.0° 1000.1 hPa 3.4 m/s 71.6 mm
20:00 12.6° 997.9 hPa 1.7 m/s 72.6 mm 12.6° 997.9 hPa 1.7 m/s 72.6 mm
 05:28     21:35    Daglengte: 16:07 Donderdag 05 Aug
02:00 11.4° 996.1 hPa 1.3 m/s 73.3 mm 11.4° 996.1 hPa 1.3 m/s 73.3 mm
08:00 12.8° 993.7 hPa 2.1 m/s 76.5 mm 12.8° 993.7 hPa 2.1 m/s 76.5 mm
14:00 17.2° 1007.2 hPa 1.5 m/s 1.6 mm
20:00 16.8° 1006.4 hPa 1.8 m/s 2.5 mm
 05:30     21:33    Daglengte: 16:03 Vrijdag 06 Aug
02:00 14.3° 1006.7 hPa 2.1 m/s 0.7 mm
08:00 14.7° 1006.1 hPa 1.5 m/s 0.8 mm
14:00 18.0° 1006.2 hPa 1.6 m/s 1.3 mm
20:00 17.2° 1005.6 hPa 2.6 m/s 0.7 mm
 05:32     21:31    Daglengte: 15:59 Zaterdag 07 Aug
02:00 14.4° 1005.8 hPa 2.4 m/s 0.8 mm
08:00 15.0° 1005.6 hPa 2.3 m/s 1.3 mm
14:00 18.1° 1006.0 hPa 2.4 m/s 1.2 mm
20:00 17.2° 1005.6 hPa 3.1 m/s 1.0 mm
 05:34     21:28    Daglengte: 15:54 Zondag 08 Aug
02:00 14.4° 1006.2 hPa 2.3 m/s 0.8 mm
08:00 14.7° 1006.5 hPa 1.7 m/s 0.8 mm
14:00 18.0° 1007.2 hPa 1.9 m/s 0.9 mm
20:00 17.2° 1007.3 hPa 2.4 m/s 0.8 mm
 05:36     21:26    Daglengte: 15:50 Maandag 09 Aug
02:00 14.5° 1008.1 hPa 2.3 m/s 0.7 mm
08:00 15.1° 1008.2 hPa 1.5 m/s 1.1 mm
14:00 18.3° 1009.2 hPa 2.4 m/s 1.5 mm
20:00 17.2° 1009.3 hPa 3.5 m/s 1.0 mm
 05:39     21:23    Daglengte: 15:44 Dinsdag 10 Aug
02:00 14.5° 1010.1 hPa 2.8 m/s 0.5 mm
08:00 15.1° 1010.2 hPa 1.5 m/s 0.1 mm
14:00 18.9° 1010.8 hPa 2.9 m/s 0.9 mm